Voltar ao catálogo

LEGION 6

AtivoCiênciaVLEO
NORAD 62901·PAYLOAD·🇺🇸 United States

Lançado Feb 4, 2025 de Cape Canaveral Space Force Station

Loading…

Próximas Passagens (próximas 24 horas)

TLE

AtualizadoSource: Space-Track

Época: Sep 13, 2026, 13:38 UTC

1 62901U 25025B   26256.56825211  .00002988  00000-0  16612-3 0  9999
2 62901  45.0004  96.6510 0011185 260.2678  99.6937 15.16038145 89045

Acompanhe LEGION 6 em tempo real com AllMySat

Download on the App Store